Find Starlink 31834

NORAD ID: 59721 Int'l Des: 2024-088 Owner: SPXS Country: US Constellation: starlink operational
LEOCIRCULAR

現在のビュー

3D地球を読み込み中...

About Starlink 31834

Starlink 31834 (NORAD 59721) is a starlink constellation satellite (v2 mini) launched May 10, 2024 by SPXS of US. It operates in LEO, CIRCULAR orbit with a mass of 730.00 kg.

次回通過

Passes for default location (London). Set your location on the main map for personalized predictions.

高度履歴

Loading altitude history...

軌道要素

1 59721U 24088P 26263.44016767 .00001460 00000-0 58771-4 0 9993
2 59721 53.1613 314.3017 0000841 77.5572 282.5523 15.31711144133697
Epoch: Sep 20, 2026 • Age: 14 hours

現在のステータス

高度 474.6 km
遠地点 / 近地点 N/A
速度 7.63 km/s
衛星直下点 -14.40°S, 68.05°W
打ち上げ日 May 10, 2024
運用期間 2.3 years
タイプ internet

技術仕様

分類 Payload
質量 730.00 kg
乾燥質量 700.00 kg
長さ 0.30 m
スパン 29.00 m
形状 ? Box + pan
製造者 SPXS
バスタイプ Starlink V2M
フェーズステータス In Orbit
所有者/国 SPXS/US

Most Searched